IRIDIUM 138

Last updated on Tue Sep 22 2026 00:03:21 GMT+0000 (Coordinated Universal Time)

1 43071U 17083B 26264.03887962 .00000043 00000+0 83412-5 0 9996 2 43071 86.3926 281.6507 0002405 90.6482 269.4989 14.34217629457877
UTC large
Height (km)
Speed (km/s)
/
Latitude / Longitude
Inclination (degrees)
Orbital Period (minutes)
Azimuth
Elevation
Range (km)
Doppler Factor

Next 0 passes for location: London (51.5072 / 0.1276)

No passes found over London.
IRIDIUM 138